Weather History for KCKV - January, 2014

Change the Weather History Date:

Sunday, January 26, 2014

  Actual Average Record
Temperature  
Mean Temperature 40 °F -  
Max Temperature 63 °F - 73 °F (1952)
Min Temperature 17 °F - 5 °F (1978)
Degree Days  
Heating Degree Days 25    
Month to date heating degree days 828  
Since 1 July heating degree days 2455  
Cooling Degree Days 0    
Month to date cooling degree days 0  
Moisture  
Dew Point 22 °F    
Average Humidity 49    
Maximum Humidity 67    
Minimum Humidity 30    
Precipitation  
Precipitation 0.00 in - 1.43 in (2012)
Month to date precipitation 1.85  
Sea Level Pressure  
Sea Level Pressure 29.79 in    
Wind  
Wind Speed 12 mph (SSW)    
Max Wind Speed 23 mph    
Max Gust Speed 37 mph    
Visibility 10 miles    
Events      
T = Trace of Precipitation, MM = Missing Value Source: NWS Daily Summary

Daily Weather History Graph

Daily Weather History Graph

Search for Another Location

Airport or City:

Trip Planner

Search our weather history database for the weather conditions in past years. The results will help you decide how hot, cold, wet, or windy it might be!

Date:

Astronomy

Jan. 26, 2014 Rise Set
Actual Time 6:55 AM CST 5:09 PM CST
Civil Twilight 6:28 AM CST 5:36 PM CST
Nautical Twilight 5:57 AM CST 6:07 PM CST
Astronomical Twilight 5:26 AM CST 6:38 PM CST
Moon 2:32 AM CST (1/26) 12:58 PM CST (1/26)
Length of Visible Light 11h 08m
Length of Day
10h 13m
Waning Crescent, 23% of the Moon is Illuminated
Jan 26
Waning Crescent
Jan 30
New
Feb 6
First Quarter
Feb 14
Full
Feb 22
Last Quarter

Hourly Weather History & Observations

Time (CST) Temp. Windchill Dew Point Humidity Pressure Visibility Wind Dir Wind Speed Gust Speed Precip Events Conditions
12:52 AM 25.0 °F 19.3 °F 5.0 °F 43% 29.99 in 10.0 mi South 4.6 mph - N/A   Clear
1:52 AM 21.0 °F - 7.0 °F 55% 29.97 in 10.0 mi Calm Calm - N/A   Clear
2:52 AM 18.0 °F 11.1 °F 8.1 °F 65% 29.96 in 10.0 mi SSE 4.6 mph - N/A   Overcast
3:52 AM 21.9 °F 15.7 °F 8.1 °F 55% 29.94 in 10.0 mi South 4.6 mph - N/A   Clear
4:52 AM 19.9 °F 11.1 °F 8.1 °F 60% 29.90 in 10.0 mi SSE 6.9 mph - N/A   Clear
5:52 AM 19.0 °F 11.1 °F 8.1 °F 62% 29.88 in 10.0 mi SSE 5.8 mph - N/A   Clear
6:52 AM 24.1 °F 16.0 °F 7.0 °F 48% 29.83 in 10.0 mi South 6.9 mph - N/A   Clear
7:52 AM 28.0 °F 20.0 °F 10.9 °F 49% 29.83 in 10.0 mi South 8.1 mph - N/A   Scattered Clouds
8:52 AM 37.0 °F 28.5 °F 18.0 °F 46% 29.81 in 10.0 mi South 13.8 mph - N/A   Clear
9:52 AM 46.0 °F 38.8 °F 25.0 °F 44% 29.79 in 10.0 mi SSW 18.4 mph 27.6 mph N/A   Clear
10:52 AM 53.1 °F - 27.0 °F 37% 29.77 in 10.0 mi SSW 17.3 mph 36.8 mph N/A   Clear
11:52 AM 57.0 °F - 27.0 °F 32% 29.75 in 10.0 mi SW 18.4 mph 27.6 mph N/A   Clear
12:52 PM 59.0 °F - 28.9 °F 32% 29.72 in 10.0 mi SW 16.1 mph 25.3 mph N/A   Clear
1:52 PM 62.1 °F - 30.9 °F 31% 29.69 in 10.0 mi SW 16.1 mph 24.2 mph N/A   Clear
2:52 PM 62.1 °F - 30.9 °F 31% 29.68 in 10.0 mi SW 19.6 mph 28.8 mph N/A   Clear
3:52 PM 62.1 °F - 32.0 °F 32% 29.67 in 10.0 mi SW 16.1 mph 21.9 mph N/A   Clear
4:52 PM 60.1 °F - 32.0 °F 35% 29.68 in 10.0 mi SW 18.4 mph 29.9 mph N/A   Clear
5:52 PM 57.0 °F - 32.0 °F 39% 29.70 in 10.0 mi SSW 13.8 mph - N/A   Clear
6:52 PM 54.0 °F - 32.0 °F 43% 29.71 in 10.0 mi SSW 10.4 mph - N/A   Clear
7:52 PM 54.0 °F - 32.0 °F 43% 29.72 in 10.0 mi SSW 12.7 mph 20.7 mph N/A   Clear
8:52 PM 53.1 °F - 32.0 °F 45% 29.72 in 10.0 mi SSW 12.7 mph 20.7 mph N/A   Partly Cloudy
9:52 PM 53.1 °F - 30.9 °F 43% 29.71 in 10.0 mi SSW 11.5 mph 19.6 mph N/A   Overcast
10:52 PM 53.1 °F - 30.9 °F 43% 29.73 in 10.0 mi SW 11.5 mph 21.9 mph N/A   Mostly Cloudy
11:52 PM 53.1 °F - 32.0 °F 45% 29.76 in 10.0 mi West 9.2 mph - N/A   Clear